Wind_Speed
21 19 20 21 21 21 18 15 16 16 16 15 14 16 17 13 6 4 3 5 10 14 14 14 14 18 21 19 17 18 18 15 13 12 13 14 15 14 13 13 13 13 13 13 14 14 14 14 13 13 13 13 12 12 13 15 16 18 18 18 17 15 12 10 9 9 9 9 9 9 9 10 11 11
22 21 21 22 22 24 21 15 13 15 17 16 15 16 19 17 13 9 5 5 11 13 13 14 15 17 21 21 19 18 17 16 15 14 14 14 15 14 14 14 14 14 14 14 14 14 14 14 14 14 13 12 12 12 14 16 18 19 18 17 15 14 12 11 9 9 9 9 9 9 10 10 10 10
23 23 23 23 23 23 24 20 14 13 16 17 16 15 17 18 17 15 10 4 9 13 11 11 14 17 22 23 21 19 18 17 16 16 16 15 15 14 14 14 15 14 13 13 13 13 13 13 13 13 12 11 11 13 15 17 18 18 17 16 14 14 13 12 11 10 9 9 9 9 9 10 10 10
25 25 24 24 24 23 23 24 19 14 15 18 18 16 17 17 16 17 14 8 7 12 12 10 11 16 22 24 21 19 18 17 16 16 16 16 15 16 15 14 14 14 13 13 13 13 13 13 12 12 11 11 12 14 16 18 18 16 15 15 14 14 13 13 12 11 10 10 10 10 10 11 11 11
26 26 26 25 25 24 23 24 23 19 16 18 20 19 19 19 18 18 17 13 10 11 12 10 10 15 21 22 20 19 18 17 17 16 16 17 18 18 18 16 15 15 15 14 13 12 12 11 11 11 11 12 13 14 16 17 15 14 14 14 14 14 14 13 12 12 11 11 11 11 11 12 12 12
29 28 29 28 27 26 25 25 25 23 20 19 21 22 22 22 22 21 21 18 15 14 14 12 12 16 20 21 20 19 19 18 18 17 17 19 19 20 19 18 17 17 16 14 12 11 11 11 12 12 13 13 13 14 15 14 13 13 13 14 14 14 14 13 13 13 13 13 13 12 12 11 11 11
31 31 30 31 30 28 28 28 28 27 24 22 22 24 25 25 25 25 24 22 19 18 18 16 16 18 20 21 21 21 20 20 19 19 19 19 19 19 19 19 19 17 15 13 12 12 12 12 13 14 14 14 14 14 14 13 13 12 12 12 13 14 14 14 14 14 14 14 13 12 11 10 10 9
34 34 33 33 32 31 31 31 31 30 30 28 26 26 27 28 28 27 27 26 24 22 20 20 20 20 19 21 22 22 22 22 21 20 20 20 19 19 19 20 20 17 15 14 14 14 13 14 14 14 14 14 14 15 14 12 12 11 11 11 12 12 12 13 13 13 13 13 13 13 12 11 10 9
36 36 36 36 35 34 33 33 34 34 34 33 31 30 29 30 30 30 29 29 28 25 24 23 22 20 19 20 22 23 23 23 22 21 21 21 20 19 19 19 19 17 15 16 16 16 16 16 16 16 15 15 15 15 13 13 12 11 11 11 11 11 11 11 12 12 13 15 16 16 15 13 11 10
38 38 38 38 37 37 37 36 36 36 36 36 35 34 33 32 32 31 31 30 30 28 27 26 24 23 22 22 24 25 25 24 24 23 22 21 21 20 20 20 19 18 17 17 17 17 18 18 17 17 16 15 16 15 14 13 12 11 10 10 11 12 12 12 13 13 15 18 20 19 17 15 13 12
39 39 39 39 39 39 40 39 39 38 37 37 37 37 36 34 33 33 32 31 31 30 28 26 25 25 25 25 25 26 25 24 24 24 23 22 22 23 22 21 21 21 21 20 18 18 17 18 17 17 16 16 16 15 15 14 13 11 11 11 12 13 13 13 14 15 17 19 20 19 17 15 13 11
40 41 41 41 41 41 42 42 41 40 39 37 37 38 36 34 34 34 33 31 31 31 29 28 27 26 25 26 25 24 25 25 26 28 27 25 25 25 24 23 22 22 23 22 20 19 18 18 18 17 17 17 17 16 15 15 14 13 12 13 14 14 13 13 14 16 18 18 17 15 13 11 10 8
41 42 42 42 43 43 44 44 43 42 41 40 39 39 37 36 36 35 34 32 30 30 28 27 27 25 25 27 26 25 28 31 31 30 29 27 27 26 26 25 24 23 23 23 23 22 21 20 18 17 17 16 15 15 15 14 14 14 14 15 15 14 13 12 14 16 17 16 14 12 11 9 8 7
41 42 42 43 44 45 45 45 45 44 44 44 43 42 41 40 39 36 34 33 32 31 28 28 28 26 26 29 30 30 33 34 32 30 29 28 26 24 23 23 24 24 24 24 25 25 23 22 20 18 17 16 15 16 16 15 15 14 15 16 16 14 11 10 13 15 16 15 14 13 12 11 10 9
41 41 42 42 43 44 45 45 46 46 46 46 45 44 43 43 43 40 37 35 34 33 30 30 30 29 29 32 34 33 32 33 32 32 31 29 26 23 20 18 19 23 25 25 26 26 23 22 21 19 18 17 16 16 16 14 14 15 16 16 14 12 9 9 12 14 14 13 12 12 12 11 10 10
40 40 41 41 41 42 44 46 46 46 47 48 47 46 46 45 46 45 43 40 39 37 33 31 32 33 33 33 35 35 34 33 33 33 31 30 29 27 24 21 21 23 25 25 26 25 22 21 22 22 21 18 15 14 14 13 15 17 16 15 13 9 7 8 11 11 10 8 8 8 9 9 8 8
40 39 39 40 41 41 42 44 45 46 47 48 48 48 48 47 47 47 47 46 44 43 40 36 36 38 37 35 37 40 38 35 34 32 32 33 32 30 29 29 29 27 23 24 26 25 23 23 24 24 21 16 14 14 15 15 16 17 15 13 11 8 7 8 9 9 8 6 6 7 8 7 6 6
40 40 39 39 40 40 41 42 44 44 45 46 48 49 49 49 49 48 49 49 47 46 45 42 42 43 42 41 42 42 41 39 37 36 35 36 35 34 34 34 33 29 25 24 24 23 24 25 25 24 20 15 14 15 14 13 14 15 14 12 9 8 8 7 7 8 8 7 7 7 7 6 6 5
40 40 40 40 40 40 41 41 42 43 44 44 46 48 49 49 49 50 52 52 51 50 49 48 47 46 46 45 44 42 42 43 42 40 40 40 38 36 33 30 29 28 26 25 24 22 24 26 25 22 18 15 15 14 12 11 12 13 13 11 10 9 8 6 7 8 8 7 7 7 8 8 7 6
40 40 40 41 40 41 42 41 41 43 43 43 43 45 46 47 48 51 54 54 54 54 52 51 50 48 46 45 44 43 43 43 43 40 37 36 34 30 26 24 26 27 26 28 28 24 22 24 24 20 17 16 16 15 12 10 11 13 13 12 12 11 8 7 8 9 9 8 7 8 9 9 9 8
39 39 40 41 41 41 41 41 42 42 42 43 43 43 43 43 45 51 52 51 53 55 55 53 52 50 47 44 44 45 44 43 43 39 35 34 34 30 23 20 24 28 29 30 31 27 22 21 22 20 17 17 17 15 13 13 12 13 14 15 15 12 9 8 8 9 10 9 8 9 10 10 10 10
39 39 40 40 40 41 41 40 41 41 42 44 44 43 41 40 45 50 48 44 47 51 53 54 52 50 48 45 45 45 45 44 44 43 40 38 37 32 25 22 23 26 31 35 33 28 23 22 22 20 16 15 17 18 15 14 14 15 16 16 15 12 9 9 9 10 10 10 10 11 10 10 11 11
39 40 40 39 40 41 41 41 41 41 43 45 46 44 40 40 47 50 45 43 44 45 47 51 51 49 48 47 46 46 46 45 46 47 46 42 40 35 30 28 22 16 22 35 37 29 25 25 24 22 15 9 13 19 17 14 14 15 15 15 15 13 11 10 10 10 11 10 11 11 10 10 11 11
38 39 39 39 40 41 41 41 41 42 44 46 47 44 41 44 50 46 41 43 45 41 42 47 50 50 48 46 46 46 47 46 47 48 47 44 43 39 33 31 26 19 23 36 39 31 26 26 26 26 20 11 9 15 18 15 14 13 13 14 15 13 12 11 11 11 11 11 11 11 10 9 9 10
37 37 37 39 41 41 41 41 41 42 45 47 48 48 49 52 51 42 37 41 43 41 40 43 45 47 46 45 45 45 46 47 48 47 46 44 44 42 37 33 30 26 26 34 38 34 28 27 27 28 25 19 13 13 16 16 14 13 12 14 14 13 12 12 11 11 11 12 12 11 10 9 8 10
37 37 38 40 41 40 41 40 40 42 44 46 49 52 55 56 51 42 37 36 38 41 42 41 41 43 44 44 44 44 44 45 46 45 44 44 44 44 43 40 36 33 31 32 36 37 32 29 30 29 25 22 17 15 16 15 14 14 14 14 15 14 13 12 11 11 12 12 12 12 10 9 10 12
39 39 39 40 40 39 40 40 41 42 43 46 49 53 56 55 47 37 32 32 36 41 43 41 41 43 44 44 44 45 45 44 44 44 45 46 45 43 43 42 40 40 37 33 34 38 35 31 32 32 28 24 19 15 15 15 14 14 15 15 14 13 12 12 12 11 11 12 13 12 11 12 13 13
41 39 38 39 39 41 42 43 44 44 45 47 49 51 54 51 40 32 34 39 41 41 40 41 43 44 45 45 46 47 48 45 44 45 46 45 44 42 41 41 40 39 38 35 35 39 38 33 31 32 30 27 22 17 15 15 15 15 14 13 12 12 12 12 11 12 12 13 14 14 14 15 14 12
40 38 38 40 41 42 43 45 46 47 47 48 49 50 52 48 40 38 43 44 41 40 41 42 43 44 46 48 49 50 49 47 45 45 43 41 40 39 39 39 38 37 37 37 36 38 38 34 31 30 29 26 23 20 17 15 15 16 15 14 12 12 12 12 12 13 14 14 14 14 15 15 14 11
38 35 34 36 37 39 41 42 44 46 48 49 48 49 51 48 42 43 45 43 39 42 44 43 43 46 46 45 44 44 44 46 46 44 40 38 37 38 38 36 35 34 35 37 36 37 39 34 29 28 27 23 23 22 20 17 15 15 15 15 13 11 11 12 12 12 12 13 14 15 15 14 11 9
42 39 37 34 33 34 35 36 38 41 43 43 43 44 47 46 44 45 48 48 47 47 47 47 48 47 42 36 35 37 40 43 43 42 40 38 37 38 37 35 32 32 34 35 35 36 38 34 28 27 25 22 22 22 19 18 17 16 16 16 15 13 12 11 10 10 10 12 14 15 15 12 10 8
31 34 36 36 36 36 36 36 38 39 41 41 40 40 41 42 43 44 46 48 50 49 49 49 44 35 28 28 32 36 38 39 39 39 40 39 39 39 38 35 32 31 32 33 34 36 35 31 28 26 23 21 23 22 19 18 19 18 18 18 17 16 15 13 11 10 10 12 15 15 12 11 9 10
17 21 25 28 30 32 33 34 36 38 40 40 40 40 40 41 41 40 40 43 47 49 49 47 38 26 22 27 31 34 35 37 40 42 43 42 41 40 38 35 33 34 34 34 34 34 31 28 25 23 19 19 21 22 21 21 20 20 19 18 17 17 16 13 11 9 9 12 16 13 10 8 10 12
15 17 19 22 24 26 27 28 31 34 35 35 36 38 39 41 41 40 41 44 47 49 49 46 38 29 28 30 33 37 39 40 43 46 48 46 44 42 40 36 35 36 35 34 34 33 31 27 22 19 18 19 22 22 22 21 19 19 18 17 17 19 17 13 11 10 10 14 15 12 9 10 12 13
14 16 18 20 22 23 25 26 29 31 32 33 34 35 36 39 40 41 44 46 46 46 46 40 32 30 32 35 39 43 44 44 44 46 48 47 45 44 42 38 34 33 34 34 34 33 32 28 23 19 19 20 20 20 22 23 20 18 18 17 17 18 17 14 12 11 12 13 13 12 12 13 14 13
7 10 13 15 17 20 22 25 27 29 30 31 33 33 33 36 38 40 43 45 43 42 42 37 32 33 36 38 40 42 44 45 44 43 45 45 45 44 41 36 34 34 36 36 36 35 33 30 28 24 18 15 12 11 17 24 24 20 19 19 18 18 17 15 13 13 13 14 14 13 13 14 14 13
10 10 11 13 15 17 20 22 25 27 29 31 32 32 33 34 37 39 41 41 38 38 40 38 36 36 38 39 40 41 44 45 44 44 45 44 43 40 36 34 35 37 38 37 37 36 33 31 31 28 19 11 7 6 11 19 23 21 19 19 20 19 18 16 14 15 15 15 15 14 14 15 15 13
15 15 15 17 18 20 21 23 24 26 27 29 30 32 33 33 35 37 38 37 35 35 37 38 38 39 41 43 43 43 44 44 42 40 41 41 41 39 37 34 34 34 33 32 33 34 32 30 31 31 23 12 7 7 8 12 15 17 17 19 22 21 19 17 17 16 16 16 15 16 16 16 15 12
17 17 18 20 22 24 25 26 27 28 28 29 30 31 32 32 33 34 34 33 33 33 34 35 37 40 40 40 39 39 40 41 39 39 41 43 42 40 37 34 31 29 26 25 26 28 29 30 32 34 31 23 18 18 17 15 13 12 11 13 17 20 20 19 18 18 17 17 17 17 16 16 15 14
17 18 19 20 23 25 26 27 28 29 30 30 31 31 32 33 33 33 33 32 32 32 31 31 32 34 34 35 38 39 41 43 43 41 41 41 40 38 36 34 31 30 26 22 20 22 28 34 36 37 36 33 29 25 21 15 11 10 8 9 11 15 17 19 20 20 19 19 19 18 17 17 16 15
17 19 20 21 22 24 26 27 28 29 30 30 31 31 31 31 32 32 32 32 32 32 32 32 32 33 34 35 35 32 31 35 39 38 34 30 28 31 34 34 31 28 24 19 18 23 30 35 37 35 34 33 28 21 14 10 10 11 12 11 11 12 14 16 19 21 21 21 21 19 18 18 17 16
17 19 21 21 21 22 23 24 26 28 29 30 30 30 31 31 31 31 31 32 32 31 30 29 28 27 29 31 30 21 10 9 16 25 32 37 36 34 35 35 31 27 24 22 23 26 28 30 32 32 31 30 26 19 13 11 12 13 12 11 11 11 11 13 15 17 18 20 21 19 17 16 13 11
17 18 19 19 19 20 21 23 24 25 27 28 28 28 27 26 25 23 22 22 20 16 12 8 6 5 6 9 21 28 27 26 23 20 25 35 39 35 32 33 33 31 27 24 23 23 23 24 28 30 31 29 26 22 17 15 16 15 13 12 12 12 12 12 13 13 14 17 19 20 20 18 13 9
18 18 18 18 19 20 21 22 22 22 22 22 20 18 16 13 11 9 8 6 5 8 13 16 20 23 23 22 23 30 37 41 40 35 31 31 32 31 29 29 29 27 25 23 22 22 24 25 27 29 29 27 25 22 19 17 16 15 14 12 12 13 13 11 10 10 12 14 16 18 21 23 21 18
17 18 17 17 18 19 19 19 19 19 18 16 14 11 9 8 11 13 15 17 20 22 24 26 29 32 35 36 35 33 32 34 36 36 34 32 30 28 26 26 25 23 21 22 23 23 25 26 27 28 27 25 23 22 21 19 17 14 13 12 12 13 12 11 10 11 12 14 14 14 17 19 18 17
Wind_Direction
213 217 219 217 216 216 224 227 219 220 222 220 219 212 202 190 170 165 201 224 224 224 225 220 216 218 220 221 216 215 220 222 228 238 239 237 238 242 246 245 244 246 248 252 252 252 255 258 264 269 272 276 279 286 294 300 306 310 312 314 316 316 317 314 310 306 301 298 297 295 295 295 296 299
215 218 221 222 221 219 224 230 222 221 223 216 214 214 212 208 197 179 179 222 228 227 226 224 221 215 214 217 213 211 221 228 232 237 236 237 241 246 251 249 247 248 252 255 254 252 253 256 261 266 269 273 279 287 296 302 307 309 311 312 314 316 318 319 316 310 304 299 296 294 294 293 295 298
218 219 223 225 224 221 224 230 230 226 222 213 208 207 208 213 211 199 187 197 227 227 224 221 225 219 211 210 211 213 224 234 237 237 238 240 241 245 250 248 247 249 253 258 257 252 251 253 258 263 266 272 280 291 299 304 307 308 309 310 312 315 317 319 319 314 307 301 298 297 296 297 299 301
219 220 224 226 225 224 225 228 232 234 225 214 211 207 203 207 214 212 203 197 215 224 226 225 222 216 208 207 213 221 228 231 234 237 239 236 234 241 246 245 244 248 256 263 263 257 253 254 258 262 266 273 282 294 302 306 307 306 306 308 311 314 315 316 315 311 307 302 299 299 300 301 302 302
219 219 225 227 226 226 228 228 229 232 229 219 216 216 212 210 214 217 214 213 214 217 224 228 215 207 206 208 217 226 226 223 226 232 233 230 233 241 246 247 248 252 260 264 263 261 260 259 261 264 269 275 283 296 304 307 307 306 307 311 314 314 313 313 312 310 307 305 303 302 302 301 301 300
218 219 223 227 227 226 227 229 227 227 228 225 220 219 219 217 216 218 218 217 216 216 219 218 205 201 208 214 217 220 222 221 223 227 227 229 236 243 246 247 250 256 259 256 255 261 264 263 264 268 273 277 282 295 304 305 305 305 308 311 313 312 312 313 312 310 308 307 308 308 307 308 307 305
216 217 220 224 226 224 224 226 227 225 226 227 225 221 221 220 218 218 219 218 215 217 219 216 205 202 209 217 218 217 220 224 226 228 229 232 238 243 243 243 248 254 252 245 250 261 263 263 265 268 272 274 280 291 298 299 298 301 306 309 309 309 313 315 313 310 309 311 313 313 313 316 318 316
215 216 218 221 223 223 222 223 224 225 225 226 227 225 223 222 220 218 218 219 218 217 217 216 213 213 214 216 217 214 216 222 228 232 233 234 239 243 242 244 249 252 247 243 250 258 259 261 263 267 271 273 277 284 289 292 295 300 306 308 307 310 316 316 313 311 312 314 314 314 314 316 319 320
216 216 217 219 220 220 220 220 221 222 222 224 225 226 225 223 222 220 218 220 220 219 218 217 217 221 220 215 214 213 213 216 223 231 236 237 238 239 239 242 247 248 245 244 249 252 254 258 260 263 267 268 270 275 281 286 289 295 301 301 302 310 318 316 311 312 313 313 311 310 310 311 313 313
219 218 218 219 219 218 218 219 220 220 219 220 221 223 225 224 222 220 219 219 218 218 220 220 219 220 219 214 211 212 213 215 218 223 230 236 237 235 234 235 238 240 242 245 250 252 252 255 258 259 262 263 265 270 273 274 276 281 288 291 295 303 308 306 305 306 308 307 305 304 303 303 306 307
222 221 220 220 219 219 219 219 219 219 218 218 219 220 222 222 220 219 219 218 216 215 216 218 218 218 217 215 214 215 217 221 224 223 222 225 229 230 230 230 231 236 241 246 250 251 251 253 253 254 258 260 261 264 264 263 264 269 276 279 281 286 290 292 294 299 302 302 300 298 298 301 305 309
224 224 223 222 221 222 222 222 221 220 219 218 219 220 220 219 218 217 217 216 214 213 213 214 215 216 216 216 218 217 213 214 220 222 220 222 225 225 225 228 231 236 241 244 245 245 248 249 247 251 257 259 257 257 259 258 257 261 268 270 269 274 281 284 290 298 303 304 300 297 300 307 312 318
224 225 224 224 224 224 224 224 224 223 222 220 220 220 218 218 217 216 215 214 212 212 212 214 213 213 214 214 213 210 208 211 216 219 219 223 228 228 228 232 236 237 238 241 241 243 247 247 248 252 256 255 253 253 255 256 255 259 262 261 263 270 276 282 294 305 307 304 300 298 300 305 312 318
224 225 225 226 227 226 226 226 226 225 225 224 225 224 221 218 216 214 212 212 211 210 211 212 211 211 215 215 212 210 212 214 216 215 215 219 225 228 230 235 239 236 233 235 238 242 245 246 247 249 249 247 249 252 255 256 256 258 258 256 258 264 271 285 303 310 307 300 296 294 296 299 303 307
224 225 226 227 228 228 228 227 227 228 228 228 228 228 226 224 220 216 213 211 211 211 211 212 211 211 215 217 215 215 215 214 213 214 215 215 217 216 218 225 230 229 226 227 234 239 240 239 238 238 241 245 249 253 254 252 252 255 255 250 249 255 267 294 311 312 304 299 297 296 297 301 303 303
225 225 226 227 228 229 229 228 228 228 229 230 230 230 230 229 227 223 219 216 214 212 213 213 212 214 217 217 216 216 215 214 214 214 214 215 215 214 214 218 223 225 221 219 227 235 232 227 228 232 238 244 246 247 246 247 253 255 250 241 240 250 273 298 309 311 307 305 310 310 309 311 311 311
227 227 227 227 228 229 230 229 228 228 228 229 230 231 231 231 230 228 225 224 222 219 217 215 216 217 217 217 217 217 216 214 213 211 212 215 216 214 216 221 225 226 220 213 221 230 226 220 224 233 239 242 242 242 245 248 251 251 242 234 239 253 274 290 301 311 315 314 318 318 317 322 328 329
229 229 228 228 229 229 230 229 228 228 228 228 228 229 229 230 231 230 228 226 226 225 223 221 222 223 220 220 221 220 217 215 213 210 210 214 215 216 220 226 228 225 220 214 214 221 224 220 224 232 235 233 235 241 245 242 241 241 237 235 246 257 262 276 294 306 311 312 311 308 306 313 326 337
232 232 231 231 231 231 231 230 229 228 227 227 227 227 228 229 230 230 230 227 226 226 226 226 228 228 226 225 225 222 218 217 218 217 216 217 217 218 220 224 224 221 219 216 211 215 222 219 221 228 229 226 232 238 238 234 234 236 237 241 251 254 254 267 283 294 302 307 304 297 294 297 304 315
236 236 235 234 234 234 234 233 231 230 228 226 226 227 227 228 229 231 232 231 228 228 228 229 231 232 230 228 227 225 222 220 219 219 219 218 215 212 210 211 212 211 213 213 211 213 218 217 218 225 224 221 226 229 225 227 230 231 238 250 254 248 250 264 270 280 294 301 299 294 292 296 297 298
240 240 238 237 237 237 237 235 234 232 230 228 227 227 227 228 230 233 233 233 232 231 230 231 232 233 233 230 229 228 225 223 219 214 212 211 207 203 201 202 202 203 206 210 210 210 213 213 215 218 216 215 219 223 228 234 236 240 249 255 252 244 247 257 261 274 287 290 290 291 292 296 297 296
242 242 242 241 240 240 240 239 237 234 231 229 228 228 227 227 230 233 232 231 233 232 231 232 233 233 233 232 230 229 227 224 220 213 211 209 204 201 201 199 196 199 205 206 205 205 211 213 211 209 206 212 222 228 233 237 240 248 253 249 243 239 238 246 257 270 278 281 285 287 290 293 295 295
243 244 244 244 243 243 243 241 240 237 234 231 230 230 227 228 232 234 230 229 232 231 228 229 230 231 232 231 230 229 227 224 221 218 215 210 203 201 203 198 190 191 205 206 202 200 206 210 207 201 193 202 229 231 231 230 231 236 238 232 229 228 231 245 260 264 269 277 281 281 285 288 288 290
242 244 245 246 246 246 246 244 242 241 238 235 234 231 229 231 235 235 231 230 232 231 228 228 228 229 229 228 228 227 225 223 221 220 217 212 206 205 204 197 193 196 204 204 201 200 204 204 202 199 196 198 218 222 220 218 217 223 227 222 221 225 235 248 256 255 261 272 278 281 283 278 278 288
241 243 245 247 248 247 248 247 245 244 243 240 237 234 234 236 238 237 233 232 233 233 233 231 229 229 229 227 226 225 222 221 220 218 216 213 210 209 207 201 199 203 207 205 203 202 202 198 195 194 197 204 208 202 200 204 211 220 224 222 225 232 240 243 243 248 261 271 276 278 274 267 274 288
241 243 244 247 248 249 249 249 247 246 246 245 242 240 240 241 240 237 235 234 233 232 232 231 228 227 226 225 224 224 222 220 218 216 216 215 214 214 213 209 205 205 208 207 205 203 199 195 194 191 190 199 208 202 195 200 211 217 220 226 234 238 237 237 242 252 260 266 273 275 270 270 281 285
243 244 245 247 249 250 251 251 250 249 248 248 247 247 247 245 240 237 237 237 235 234 231 228 227 225 224 223 222 222 222 220 217 216 217 217 215 215 215 214 214 213 211 206 203 203 200 198 198 197 193 193 196 197 197 201 207 211 218 227 233 231 230 234 242 252 256 260 269 272 269 272 276 276
244 245 246 248 249 250 251 253 253 252 250 249 249 251 251 247 239 236 237 235 236 237 234 228 227 225 222 220 220 220 220 219 218 218 218 218 216 214 212 213 214 215 212 206 201 201 202 200 199 201 201 198 195 196 198 201 204 207 214 223 224 220 222 229 239 248 253 258 264 265 266 272 273 267
245 246 249 250 251 252 252 253 254 253 253 252 251 252 253 247 237 234 237 235 235 238 238 233 231 228 225 222 221 220 218 217 217 217 216 214 212 209 209 209 211 212 210 205 200 199 200 200 198 198 201 205 208 208 203 200 203 208 213 225 235 232 229 232 238 244 251 257 258 259 264 271 267 255
244 246 249 251 253 254 254 254 253 253 255 255 254 253 254 248 237 232 234 233 233 237 240 239 236 234 230 226 222 219 216 214 214 213 210 206 203 200 198 197 198 201 201 200 198 198 200 201 199 198 199 206 214 215 208 202 203 208 214 225 235 237 236 235 236 243 254 257 256 261 269 266 251 245
248 250 252 253 255 257 258 258 258 258 259 259 258 257 255 251 242 235 234 233 234 236 238 239 239 237 233 226 220 217 215 214 212 209 205 200 197 194 191 186 184 187 190 193 195 198 201 201 199 198 199 205 211 212 209 207 207 211 217 224 229 234 237 237 238 242 247 251 260 270 269 254 240 258
261 261 261 262 262 264 265 265 266 266 266 266 266 264 262 259 252 243 238 237 237 239 240 241 241 239 232 222 215 213 214 214 210 206 204 200 196 191 186 182 179 177 181 186 190 195 199 198 196 196 201 211 216 211 203 205 212 217 222 226 231 238 242 245 248 241 235 251 269 269 253 241 254 289
281 276 273 271 270 269 269 269 268 268 267 267 267 265 263 262 257 249 243 240 240 242 242 242 241 234 222 215 211 209 211 212 208 204 202 199 195 190 185 184 181 178 178 179 182 187 191 192 194 198 205 221 227 216 201 202 212 221 226 229 233 240 243 245 240 228 231 259 267 255 238 253 283 297
282 278 274 272 271 269 268 267 267 267 267 267 266 264 262 260 257 252 247 244 243 243 244 244 238 225 210 205 205 206 209 209 207 203 200 198 193 188 185 184 184 182 178 175 177 182 184 184 191 203 211 221 228 222 211 208 213 220 227 234 239 243 245 239 226 223 245 261 257 246 252 276 287 290
275 275 274 273 274 272 270 268 268 269 269 268 266 265 263 260 257 253 250 248 247 246 247 248 239 220 209 207 207 207 207 206 204 200 197 195 192 189 187 185 182 179 175 173 177 182 182 181 186 198 207 212 217 221 222 222 223 224 229 237 244 245 244 236 224 228 246 249 242 248 269 280 284 289
304 298 292 287 286 284 281 280 279 279 279 277 275 273 269 265 262 258 256 255 252 249 249 249 237 222 216 213 212 210 207 204 202 197 193 192 190 189 188 184 179 176 175 176 179 179 179 181 185 188 192 197 202 216 221 220 223 229 234 239 243 241 239 234 226 230 242 243 242 255 273 278 282 287
2 343 323 308 300 295 290 289 288 287 286 286 285 283 279 275 272 270 269 268 263 254 250 246 237 227 220 216 213 210 206 202 199 194 191 189 187 186 185 181 179 179 178 179 179 176 175 181 186 188 188 187 194 214 217 216 222 230 236 240 243 242 238 231 227 232 240 240 244 257 268 272 277 278
357 346 334 323 315 308 301 297 294 291 289 288 288 287 286 285 283 283 281 279 273 263 254 247 239 232 225 218 213 208 203 200 197 193 188 186 185 184 182 178 178 177 176 175 174 173 175 182 189 193 193 188 189 206 206 206 217 229 234 239 242 243 238 230 228 234 236 234 244 260 266 268 271 269
349 339 329 322 317 312 307 302 298 294 291 289 287 286 287 287 288 289 288 286 282 274 263 252 244 238 233 226 217 208 200 195 193 190 187 185 184 181 178 173 167 163 164 167 169 171 179 189 195 197 196 193 197 208 207 202 209 223 230 230 232 235 234 227 223 228 231 236 248 259 262 263 264 263
342 334 326 322 319 315 310 307 304 299 294 291 288 286 286 286 286 287 286 285 284 281 274 267 258 251 243 232 221 212 203 196 192 190 187 184 180 175 167 160 154 151 153 162 169 176 187 196 200 201 201 202 207 213 211 204 199 200 196 191 200 214 222 221 219 223 232 242 251 255 258 260 257 256
343 337 333 330 326 322 319 317 314 309 304 299 294 290 289 287 287 288 287 285 283 280 277 274 269 261 252 238 227 219 210 199 189 181 171 162 156 151 145 139 138 143 150 162 181 193 199 203 204 204 204 205 205 200 191 186 185 187 190 190 191 200 213 223 227 231 239 246 249 249 254 258 258 260
347 341 338 335 332 330 329 327 324 321 317 312 306 301 297 295 294 294 294 292 288 283 279 275 270 264 254 233 214 200 190 177 168 161 152 142 134 133 134 133 138 151 163 176 192 202 205 207 208 206 203 199 194 184 179 187 192 193 198 203 207 216 229 240 245 245 246 249 248 247 247 250 251 255
351 345 342 340 340 340 339 336 334 331 327 321 316 312 307 304 304 305 304 300 293 288 286 281 276 304 299 215 176 151 126 106 98 105 121 128 130 133 137 142 151 164 175 184 195 202 203 201 201 198 195 191 189 190 195 199 201 205 212 215 223 239 250 253 254 252 247 245 246 246 246 246 243 243
352 350 349 348 348 347 346 345 345 342 336 330 326 325 325 328 342 356 3 18 69 94 91 93 95 89 80 83 102 115 118 121 122 123 123 125 128 133 139 147 158 169 179 188 198 204 204 202 198 193 190 190 193 197 202 204 205 209 214 218 233 251 256 250 243 238 234 237 241 243 245 248 250 255
352 352 352 353 353 351 349 349 348 348 349 349 350 356 9 39 63 74 82 90 95 94 91 90 93 98 102 104 103 102 107 115 123 128 129 130 133 140 149 161 169 175 183 191 194 195 199 201 200 197 197 198 201 204 206 206 205 208 212 222 240 253 251 242 240 240 239 242 246 248 249 249 250 254
Height
846 847 848 848 849 849 850 851 852 853 853 853 854 854 854 856 859 862 863 861 859 859 860 860 860 861 861 862 862 863 863 864 864 864 864 865 865 866 866 867 867 868 868 868 868 868 869 869 870 870 870 870 869 869 868 868 867 866 865 864 864 863 863 862 862 861 861 860 860 859 859 858 858 857
844 845 846 846 847 848 849 849 850 851 851 851 852 853 853 854 855 857 860 860 857 857 858 858 858 859 860 861 861 862 862 862 863 863 863 863 864 864 865 865 866 866 866 867 867 867 867 868 868 868 868 868 868 868 867 866 865 864 863 863 862 862 861 861 860 860 860 859 859 858 857 857 856 855
842 843 844 844 845 846 847 848 849 849 849 850 850 851 852 852 853 853 856 858 856 855 856 856 856 857 858 859 859 860 860 861 861 861 862 862 863 863 863 864 864 865 865 865 865 866 866 866 866 867 867 867 866 866 866 865 864 863 862 861 861 860 860 859 859 859 858 858 857 857 856 855 855 854
840 840 841 842 842 844 845 846 847 847 848 848 848 849 850 851 851 852 853 854 854 854 854 854 854 855 856 857 858 858 858 859 859 859 860 861 861 861 862 862 863 863 864 864 864 864 864 865 865 865 865 865 865 865 864 863 862 861 861 860 859 859 858 858 858 857 857 857 856 855 855 854 853 852
837 838 839 840 841 842 843 843 844 845 846 846 847 847 848 848 849 850 850 851 851 852 853 852 853 853 854 855 855 856 856 856 857 857 858 858 859 859 860 860 861 862 862 862 862 863 863 863 863 863 863 863 863 863 863 862 861 860 859 859 858 858 857 857 856 856 856 855 855 854 853 852 851 851
834 835 836 837 838 839 840 840 842 843 843 844 844 844 845 845 846 847 847 848 849 850 850 851 851 852 852 853 853 853 853 854 855 855 856 856 857 857 857 858 859 859 860 860 860 861 861 861 862 862 862 862 862 861 861 860 860 859 858 857 857 856 856 856 855 855 855 854 853 852 852 851 849 849
830 831 833 834 835 836 836 837 838 839 840 841 841 841 842 842 843 843 844 845 846 846 848 849 849 849 850 850 850 851 851 852 852 852 853 853 854 855 855 855 856 857 857 858 858 858 859 859 859 860 860 860 860 860 859 859 858 858 857 856 856 855 855 854 854 854 853 852 852 851 850 849 848 847
825 827 828 829 830 831 832 833 834 835 836 837 838 838 838 839 839 840 841 842 843 843 844 845 846 846 847 847 848 849 849 850 850 850 851 851 852 852 853 853 853 854 855 855 856 856 856 857 857 857 857 857 858 858 858 857 857 856 855 855 855 854 854 854 853 853 852 851 850 850 848 847 846 845
820 821 822 823 825 827 827 828 829 830 831 832 833 834 835 835 836 837 838 839 840 841 841 842 843 844 844 844 845 846 846 847 848 848 848 849 849 850 850 850 851 852 853 853 854 854 854 854 854 854 855 855 855 856 855 855 855 854 854 853 853 853 853 853 852 852 851 850 849 848 847 846 845 844
816 817 817 819 820 821 822 822 823 824 825 827 828 829 830 831 833 834 835 835 836 837 838 839 840 841 841 841 842 843 843 844 845 845 846 846 847 847 848 848 848 849 850 850 851 851 851 852 852 852 852 852 853 853 853 853 853 852 852 851 851 851 851 852 851 851 850 848 847 846 845 844 843 842
813 813 813 814 815 816 817 817 818 820 821 822 823 824 826 828 829 830 831 832 833 834 834 836 836 837 838 838 839 839 841 842 842 842 843 843 843 844 844 845 846 846 847 848 848 849 849 849 849 849 850 850 850 850 850 850 850 850 850 849 850 850 850 850 850 849 848 847 846 845 844 842 841 841
808 808 809 809 810 811 812 813 814 816 817 819 820 821 822 824 825 826 828 829 830 830 831 832 832 834 835 835 835 837 838 838 837 837 838 838 839 840 841 842 843 843 844 844 845 846 846 846 846 847 847 847 847 848 848 848 848 847 847 847 847 848 848 848 848 847 846 845 844 843 842 841 840 840
803 804 805 805 805 806 806 808 810 811 813 814 815 816 818 820 820 822 823 825 826 827 828 828 829 830 830 830 831 832 831 831 831 832 834 835 835 837 838 838 839 840 841 841 841 842 843 843 843 844 844 844 845 845 845 845 845 845 845 845 845 845 846 846 846 845 844 843 842 842 841 840 839 839
798 799 800 800 800 801 802 804 805 807 808 809 809 811 813 814 815 816 819 820 821 822 822 823 824 825 824 824 825 825 824 825 827 829 830 831 832 834 835 835 836 837 837 838 838 838 839 840 841 841 841 841 842 842 842 843 843 842 842 842 843 843 844 844 844 843 842 842 841 841 841 839 838 838
793 794 795 796 797 798 799 800 801 802 804 804 806 807 808 809 810 811 813 814 815 816 816 817 818 818 817 818 819 820 821 822 824 825 826 827 829 830 831 831 831 832 833 835 835 834 835 837 837 838 838 839 839 839 840 840 840 840 840 840 841 841 842 842 842 841 841 840 840 840 839 838 837 836
789 790 791 792 793 793 794 796 797 798 799 800 801 803 804 804 805 806 807 808 809 810 810 811 812 811 811 812 814 815 816 818 819 820 822 823 824 825 826 826 826 827 829 831 831 831 832 833 834 834 835 836 837 837 837 838 838 838 838 838 839 839 839 840 840 840 839 839 839 839 838 837 836 835
785 786 787 788 788 789 790 791 793 794 795 796 797 798 799 800 801 802 803 802 803 803 804 805 804 803 805 806 806 807 810 812 814 815 817 818 818 819 820 820 820 822 825 827 827 827 828 829 829 830 831 833 833 834 834 835 835 836 836 837 837 837 837 838 838 838 838 837 838 837 837 836 835 834
782 782 784 784 784 785 786 787 788 790 791 793 794 794 795 795 796 797 797 797 798 799 798 797 796 796 798 798 798 801 804 806 807 808 809 810 811 812 812 813 816 818 820 822 823 823 823 825 825 825 827 829 829 830 830 831 832 833 834 835 835 835 835 836 836 836 836 836 836 836 836 834 833 832
778 779 780 780 780 781 782 782 784 785 787 788 789 789 789 790 791 790 789 790 791 792 791 790 790 791 792 793 794 797 799 799 800 801 802 804 806 807 809 810 812 815 817 818 819 819 819 821 822 822 824 825 825 826 827 827 828 830 831 832 832 833 833 833 834 834 834 834 834 834 834 833 832 831
775 776 777 776 777 777 777 779 780 781 783 784 783 783 783 785 785 783 781 782 784 784 785 785 785 786 787 789 790 792 794 794 796 799 801 802 804 805 806 807 808 810 812 813 814 814 816 818 819 820 821 821 822 823 823 824 825 827 828 830 830 831 831 831 832 832 832 832 832 832 832 831 830 830
772 772 773 773 773 773 774 775 776 777 779 779 778 778 779 781 779 774 774 777 778 779 780 780 781 782 783 785 787 788 789 790 793 796 796 797 798 800 801 802 803 804 805 807 809 811 812 814 815 817 818 819 819 820 821 821 823 824 826 827 828 829 829 829 830 830 830 830 830 830 830 829 829 828
768 768 768 769 769 769 770 771 772 773 774 774 773 773 774 775 770 765 768 774 773 774 776 777 778 779 780 781 782 783 784 786 788 788 787 789 792 793 793 795 797 799 800 800 803 806 808 809 811 813 816 817 817 818 819 819 820 821 823 824 825 826 827 827 827 828 828 828 828 828 828 827 827 826
763 763 763 764 765 765 766 767 768 768 769 768 767 767 769 767 759 756 764 768 767 769 772 772 774 775 775 776 777 777 779 780 781 781 781 783 785 786 787 790 793 795 795 795 798 800 802 804 807 810 812 814 815 815 816 816 817 818 820 821 823 824 824 825 825 825 825 825 826 826 826 825 825 825
757 757 758 759 760 760 761 762 763 763 763 762 762 763 762 756 749 753 762 764 764 767 768 767 769 769 770 772 772 772 774 775 776 776 777 779 780 781 784 786 787 788 788 789 793 795 797 799 803 805 807 809 811 812 812 812 813 815 817 818 820 821 822 822 822 822 823 823 823 824 823 823 823 823
752 752 754 754 754 755 756 757 758 758 757 756 757 755 751 745 746 755 760 761 763 766 765 764 765 766 766 767 767 767 768 769 770 772 773 775 777 778 780 781 783 785 785 787 789 791 793 795 798 801 803 804 807 808 808 809 811 812 814 816 817 818 819 819 819 820 820 821 821 821 821 821 821 821
747 748 749 749 749 750 750 751 752 752 751 751 749 745 741 742 747 754 757 759 761 761 759 759 759 758 759 760 760 761 762 763 766 768 769 771 772 773 774 775 777 779 781 784 786 787 789 791 793 796 798 801 803 805 805 806 808 809 812 813 814 815 816 816 816 817 818 818 818 819 819 819 819 819
741 742 743 744 745 745 745 745 746 746 745 744 741 738 737 740 746 752 757 758 756 752 750 749 748 747 749 751 752 754 755 758 761 763 764 765 766 768 769 771 773 775 777 781 782 783 785 787 789 791 793 796 800 801 801 803 804 806 809 810 811 813 813 813 814 814 815 816 816 816 817 817 817 817
736 737 739 739 740 740 740 740 739 739 738 736 734 733 733 736 743 749 751 749 747 745 743 740 736 735 737 739 740 743 747 751 755 757 759 760 761 763 765 767 770 772 774 777 777 778 780 783 785 788 790 793 796 797 797 799 801 803 806 808 809 810 810 810 811 811 812 813 814 814 814 814 814 814
733 735 735 735 735 735 735 734 733 732 730 729 729 727 727 730 735 739 739 739 741 740 735 730 728 727 726 727 729 733 738 744 747 750 752 755 757 760 762 764 766 768 770 772 773 775 777 778 781 785 788 790 792 793 794 796 798 800 803 805 806 807 807 808 808 808 809 811 811 812 812 812 812 812
731 732 733 733 732 732 731 731 729 727 725 724 724 723 723 724 727 728 729 732 733 730 726 724 722 720 719 722 726 730 734 736 737 741 746 749 752 754 756 759 762 764 766 767 769 772 774 774 777 781 784 787 790 790 791 792 795 798 800 802 804 804 805 805 805 805 807 808 809 809 809 810 810 809
728 729 729 730 730 729 729 728 727 725 723 722 721 720 720 720 720 720 720 721 720 718 716 714 712 712 715 720 725 729 732 731 733 737 742 745 747 750 753 756 758 760 763 764 766 769 771 772 773 776 781 785 787 788 789 790 791 794 797 799 801 801 801 802 802 803 804 805 806 807 807 807 807 807
726 726 726 726 726 726 725 725 723 722 720 718 717 716 716 715 714 714 714 713 711 709 707 706 705 708 713 718 722 725 728 729 731 735 739 741 743 745 747 750 753 755 758 760 763 766 768 770 771 773 777 782 785 785 786 787 789 791 793 795 797 798 798 799 799 800 801 803 804 804 805 805 805 805
724 723 723 723 723 722 722 721 719 717 715 713 712 711 710 709 708 708 709 708 705 703 701 700 700 703 709 714 718 721 723 725 726 727 731 734 736 738 739 742 745 748 750 753 757 761 765 769 770 771 774 779 782 782 783 784 785 787 789 791 793 794 795 796 797 797 799 800 801 802 803 803 803 803
721 721 720 720 719 719 718 717 714 712 711 709 707 705 704 703 701 701 701 699 696 696 694 693 694 697 700 705 709 711 712 714 715 716 718 723 725 727 729 733 738 742 744 747 752 757 762 766 769 771 773 777 779 780 780 781 782 784 786 788 789 791 792 793 794 795 796 797 799 800 800 800 800 801
719 718 718 718 717 716 715 713 711 709 707 704 702 700 698 696 694 693 691 688 688 689 688 688 690 692 693 694 695 696 698 701 704 707 709 712 715 717 720 724 730 736 741 744 749 754 758 761 765 770 773 775 777 778 778 778 779 781 783 785 786 787 789 790 791 792 794 795 796 797 797 797 798 798
717 717 717 717 716 715 714 712 709 707 705 702 699 696 694 691 688 686 684 683 684 684 684 684 685 685 685 685 685 687 689 692 695 698 699 701 704 709 714 719 725 731 734 738 743 749 753 756 761 767 771 773 775 775 774 774 776 777 779 781 782 784 786 787 789 790 791 792 794 794 794 795 795 795
716 716 715 715 714 713 712 710 708 706 703 700 697 694 691 687 684 682 681 681 681 679 678 677 676 675 675 676 677 679 681 682 684 687 689 692 697 703 709 715 719 723 726 730 736 742 747 752 758 763 766 768 771 771 770 771 773 774 776 777 779 781 783 785 786 787 788 790 791 792 792 793 793 793
714 714 713 712 711 710 708 707 705 702 700 697 694 691 689 685 682 681 679 678 677 674 672 671 669 667 666 665 665 666 668 671 675 678 681 685 690 695 701 707 712 717 723 729 733 737 743 751 756 759 761 764 765 766 767 769 770 771 772 774 775 778 780 783 784 784 785 787 788 789 790 790 790 790
713 713 712 711 709 708 706 703 701 699 696 694 691 688 685 682 680 678 676 674 672 670 667 664 662 660 659 658 658 659 660 663 667 671 674 678 681 686 693 700 707 715 724 731 734 737 743 749 753 754 756 757 758 760 762 765 767 768 769 771 773 775 778 780 781 782 783 784 785 786 787 788 788 788
713 712 711 710 708 705 703 701 698 695 692 690 687 684 681 678 676 674 672 670 668 666 663 660 658 657 656 656 656 656 654 653 655 659 664 668 673 680 688 696 703 712 722 730 736 740 742 745 747 749 752 754 755 758 760 763 765 766 767 769 771 773 776 777 778 779 780 781 782 784 784 785 786 786
712 710 709 708 706 704 701 698 695 692 689 686 683 680 677 675 672 669 667 665 663 661 658 656 655 653 652 651 652 653 652 651 652 656 662 669 676 683 687 693 703 713 722 730 738 741 742 742 745 749 752 753 756 759 760 762 763 765 766 769 770 772 774 775 776 777 777 778 780 781 782 783 783 783
710 709 708 707 705 702 699 696 693 690 687 683 680 677 674 671 668 665 663 660 658 656 654 652 651 648 646 645 646 649 654 657 658 659 660 665 675 685 690 695 705 715 723 730 736 740 742 745 748 750 752 753 755 757 758 759 761 763 765 767 769 770 772 773 773 774 775 776 777 778 779 780 781 781
709 709 707 706 703 700 697 694 691 689 685 681 678 674 671 668 665 662 660 657 655 653 651 650 649 647 646 645 642 642 649 660 669 673 672 670 675 685 694 699 706 715 722 728 734 739 743 746 747 748 750 751 753 754 755 757 759 761 763 765 767 768 769 770 770 771 772 773 774 775 776 777 778 778
709 708 707 704 701 698 695 693 690 687 684 681 677 674 670 668 665 663 660 658 656 654 652 651 649 647 649 652 651 649 652 658 667 677 683 684 686 693 700 706 711 717 723 728 733 737 741 743 745 746 748 749 750 752 753 755 757 759 761 763 765 766 767 768 768 769 769 770 771 771 772 774 774 775
709 708 706 703 700 697 695 692 689 686 684 681 679 676 673 670 668 666 664 662 660 658 656 655 654 652 653 656 658 662 666 670 672 677 684 690 695 700 707 712 716 720 724 728 732 735 738 740 742 744 745 747 749 750 752 754 756 758 760 761 763 764 765 766 766 767 767 767 768 768 769 770 772 773